Home > Weather > Salem > Past weeks

Flag for USA Past Weather in Salem, Oregon, USA — Yesterday and Last 2 Weeks

Now
63 °F

Passing clouds.


Feels Like: 63 °F
Forecast: 56 / 84 °F
Wind: 5 mph from Northeast

Location: McNary Field

Current Time: Jun 28, 2016 at 9:59:36 AM

Latest Report: Jun 28, 2016 at 8:56 AM


Visibility: 10 mi

Pressure: 30.20 "Hg

Humidity: 65%

Dew Point: 51 °F

Location of SalemLocation

Past Weather in Salem — Graph

°F

Salem Temperature Yesterday

Maximum temperature yesterday: 88 °F (at 3:56 PM)
Minimum temperature yesterday: 58 °F (at 4:56 AM)
Average temperature yesterday: 72 °F

High & Low Weather Summary for the Past Weeks

 TemperatureHumidityPressure
High90 °F (Jun 26, 5:56 PM)89% (Jun 19, 5:56 AM)30.37 "Hg (Jun 19, 5:56 AM)
Low46 °F (Jun 19, 5:56 AM)28% (Jun 22, 3:56 PM)29.91 "Hg (Jun 15, 1:56 PM)
Average62 °F61%30.12 "Hg
* Reported Jun 13 7:56 AM — Jun 28 7:56 AM, Salem, Weather by CustomWeather, © 2016

Note: Actual official high and low records may vary slightly from our data, if they occured in-between our weather recording intervals... More about our weather records

Advertising

Salem Weather History for the Previous 24 Hours

Scroll right to see more
 ConditionsComfort  
Time TempWeatherWind HumidityBarometerVisibility
7:56 AM
Tue, Jun 28
60 °FPassing clouds.5 mph69%30.19 "Hg10 mi
6:56 AM58 °FSunny.5 mph75%30.19 "Hg10 mi
5:56 AM54 °FClear.5 mph83%30.18 "Hg10 mi
4:56 AM53 °FClear.6 mph83%30.17 "Hg10 mi
3:56 AM55 °FClear.No wind80%30.16 "Hg10 mi
2:56 AM57 °FClear.6 mph74%30.16 "Hg10 mi
1:56 AM58 °FClear.6 mph75%30.15 "Hg10 mi
12:56 AM60 °FClear.5 mph72%30.15 "Hg10 mi
11:56 PM
Mon, Jun 27
63 °FClear.5 mph65%30.14 "Hg10 mi
10:56 PM65 °FClear.7 mph61%30.14 "Hg10 mi
9:56 PM70 °FSunny.8 mph49%30.13 "Hg10 mi
8:56 PM72 °FSunny.7 mph46%30.11 "Hg10 mi
7:56 PM77 °FSunny.13 mph40%30.10 "Hg10 mi
6:56 PM82 °FSunny.12 mph37%30.08 "Hg10 mi
5:56 PM85 °FPassing clouds.14 mph34%30.08 "Hg10 mi
4:56 PM88 °FSunny.12 mph33%30.09 "Hg10 mi
3:56 PM88 °FSunny.9 mph33%30.09 "Hg10 mi
2:56 PM86 °FSunny.3 mph36%30.10 "Hg10 mi
1:56 PM83 °FSunny.7 mph37%30.11 "Hg10 mi
12:56 PM81 °FSunny.No wind41%30.12 "Hg10 mi
11:56 AM78 °FSunny.N/A46%30.13 "Hg10 mi
10:56 AM77 °FSunny.7 mph50%30.14 "Hg10 mi
9:56 AM72 °FSunny.6 mph57%30.14 "Hg10 mi
Weather by CustomWeather, © 2016

See weather overviewHow to use our weather pages